Find STARLINK-37611

NORAD ID: 70622 Constellation: starlink operational
LEOCIRCULARRETROGRADE

实时位置

正在加载3D地球...

关于 STARLINK-37611

正在加载描述...

即将过境

Passes for default location (London). Set your location on the main map for personalized predictions.

高度历史

Loading altitude history...

两行轨道根数

1 70622C 26101K 26126.29701389 .00431100 00000+0 67492-3 0 1264
2 70622 97.2848 339.8361 0010043 259.3936 262.4612 16.03682018 14
Epoch: May 6, 2026 • Age: 18 hours